Location: Mentone
(34.5413°N, 85.5351°W)
Time: 18:36:01
(UTC-05:00)

Vanguard 3 - All Passes

Search period start: 29 July 2016 00:00
Search period end: 08 August 2016 00:00
Orbit: 509 x 3266 km, 33.4° (Epoch: 28 July)

Date Brightness Start Highest point End Pass type
(mag) Time Alt. Az. Time Alt. Az. Time Alt. Az.
29 Jul - 00:10:38 10° W 00:27:39 83° S 00:47:40 10° ESE visible
29 Jul - 02:25:55 10° WNW 02:44:44 59° SSW 03:01:55 10° SE visible
29 Jul - 04:44:52 10° W 04:59:11 26° SW 05:11:03 10° S visible
29 Jul - 18:34:30 10° SSW 18:42:02 31° SE 18:53:50 10° E daylight
29 Jul - 20:43:50 10° WSW 20:54:47 72° SSE 21:13:01 10° E visible
29 Jul - 22:56:10 10° W 23:10:54 87° S 23:31:16 10° E visible
30 Jul - 01:10:20 10° W 01:28:19 72° SSW 01:47:25 10° ESE visible
30 Jul - 03:26:49 10° W 03:44:13 40° SW 03:59:21 10° SSE visible
30 Jul - 05:53:54 10° WSW 05:57:22 11° SW 06:00:40 10° SW daylight
30 Jul - 17:24:46 10° SSE 17:29:07 15° SE 17:34:42 10° E daylight
30 Jul - 19:31:14 10° SW 19:40:09 54° SSE 19:55:32 10° ENE daylight
30 Jul - 21:42:19 10° WSW 21:54:40 84° S 22:14:12 10° E visible
30 Jul - 23:55:28 10° W 00:11:37 81° SSW 00:31:49 10° ESE visible
31 Jul - 02:10:23 10° WNW 02:28:27 55° SSW 02:46:05 10° SE visible
31 Jul - 04:29:38 10° W 04:42:58 23° SW 04:54:39 10° S visible
31 Jul - 18:19:29 10° SSW 18:26:31 34° SE 18:37:55 10° E daylight
31 Jul - 20:29:04 10° WSW 20:39:14 75° SSE 20:56:47 10° E visible
31 Jul - 22:41:14 10° W 22:55:04 86° S 23:15:16 10° E visible
01 Aug - 00:55:00 10° W 01:12:07 68° SSW 01:31:32 10° SE visible
01 Aug - 03:11:21 10° W 03:27:54 36° SW 03:43:15 10° SSE visible
01 Aug - 17:09:17 10° SSE 17:13:41 17° SE 17:19:32 10° E daylight
01 Aug - 19:16:28 10° SW 19:24:43 58° SSE 19:39:21 10° E daylight
01 Aug - 21:27:33 10° W 21:39:04 85° S 21:58:02 10° E visible
01 Aug - 23:40:23 10° W 23:55:37 78° SSW 00:15:50 10° ESE visible
02 Aug - 01:54:58 10° W 02:12:10 50° SSW 02:30:01 10° SE visible
02 Aug - 04:14:47 10° W 04:26:46 20° SW 04:37:50 10° S visible
02 Aug - 18:04:36 10° SSW 18:11:08 37° SE 18:22:01 10° E daylight
02 Aug - 20:14:24 10° WSW 20:23:48 78° SSE 20:40:33 10° E visible
02 Aug - 22:26:22 10° W 22:39:19 84° S 22:59:08 10° ESE visible
03 Aug - 00:39:47 10° W 00:55:58 63° SSW 01:15:27 10° SE visible
03 Aug - 02:56:06 10° W 03:11:37 32° SW 03:26:51 10° SSE visible
03 Aug - 16:54:00 10° S 16:58:21 18° SE 17:04:17 10° E daylight
03 Aug - 19:01:47 10° SW 19:09:24 62° SSE 19:23:13 10° E daylight
03 Aug - 21:12:51 10° W 21:23:34 86° S 21:41:49 10° E visible
03 Aug - 23:25:23 10° W 23:39:40 74° SSW 23:59:42 10° ESE visible
04 Aug - 01:39:44 10° W 01:55:55 45° SW 02:13:45 10° SSE visible
04 Aug - 04:00:29 10° W 04:10:37 16° SW 04:20:24 10° SSW visible
04 Aug - 17:49:50 10° SSW 17:55:53 40° SE 18:06:09 10° E daylight
04 Aug - 19:59:48 10° WSW 20:08:30 81° S 20:24:20 10° E visible
04 Aug - 22:11:34 10° W 22:23:38 82° S 22:42:56 10° ESE visible
05 Aug - 00:24:41 10° W 00:39:51 58° SSW 00:59:11 10° SE visible
05 Aug - 02:41:07 10° W 02:55:24 28° SW 03:10:07 10° S visible
05 Aug - 16:38:55 10° S 16:43:06 20° SE 16:49:00 10° E daylight
05 Aug - 18:47:12 10° WSW 18:54:13 66° SSE 19:07:08 10° E daylight
05 Aug - 20:58:13 10° W 21:08:09 86° S 21:25:36 10° E visible
05 Aug - 23:10:27 10° W 23:23:47 70° SSW 23:43:24 10° ESE visible
06 Aug - 01:24:41 10° W 01:39:44 40° SW 01:57:12 10° SSE visible
06 Aug - 03:47:08 10° WSW 03:54:34 13° SW 04:01:58 10° SSW visible
06 Aug - 17:35:09 10° SW 17:40:46 44° SSE 17:50:21 10° E daylight
06 Aug - 19:45:15 10° WSW 19:53:18 83° S 20:08:10 10° E visible
06 Aug - 21:56:49 10° W 22:08:03 79° SSW 22:26:39 10° ESE visible
07 Aug - 00:09:42 10° W 00:23:50 52° SSW 00:42:42 10° SE visible
07 Aug - 02:26:28 10° W 02:39:16 24° SW 02:53:00 10° S visible
07 Aug - 16:23:57 10° S 16:27:59 22° SE 16:33:44 10° E daylight
07 Aug - 18:32:40 10° WSW 18:39:10 70° SSE 18:51:07 10° E daylight
07 Aug - 20:43:38 10° W 20:52:49 84° S 21:09:22 10° E visible
07 Aug - 22:55:37 10° W 23:08:00 64° SSW 23:26:58 10° SE visible
